sat.trackr.live / text

‹ back to catalog

TIANTONG-1 1

NORAD 41725 · 2016-048A

PAYLOAD ACTIVE UNKNOWN

§ Identity

Operator
Country
PRC
Launch date
2016-08-05
Launch site
XICLF
Launch vehicle
Mass (kg)
RCS (m²)
27.90

Purposes: comms

External: N2YO · Heavens-Above · Gunter

§ Orbital elements

Epoch: 2026-09-15T22:47:15.776160Z

Period
1,436.08 min
Inclination
4.0243°
Eccentricity
0.0002391
Mean motion
1.00273025 rev/d
Perigee alt
35,776.2 km
Apogee alt
35,796.3 km
Semi-major
42,164.4 km
B*
0.0000e+0
RAAN
44.0048°
Arg perigee
78.8307°
Mean anomaly
315.3180°
Rev number
3,718

§ Raw data

TIANTONG-1 11 41725U 16048A   26258.94948815 -.00000322  00000+0  00000+0 0  99952 41725   4.0243  44.0048 0002391  78.8307 315.3180  1.00273025 37182

JSON: /api/v1/satellites/41725 · /tle

For live sub-satellite position, see the globe view (requires WebGL).

§ Visibility from observer

Set your observer location to see the next 7 days of passes ≥ 10°. The values pass through the URL so the page stays shareable.

No JS? Fill the form by hand. The geolocation button needs JavaScript.